When you browse on this site, cookies collect data to enhance your experience and personalize the content and advertising you see.
Visit our Privacy Policy to learn more. By continuing to use the site, you agree to this use of cookies and data.
  • în România
  • Lista ţărilor
  • Pe 7 zile
  • Temperatura apei
  • Meteo pe hartă
  • Widget-uri
  • user-avatar
    Intrare

    Meteo pe oră la Invercargill

    Astăzi, 28 Mai, Joi

    Timp Temperatura Precipitaţii Vânt Presiune Umiditate
    00:00 +6°C° 0 mm 1 m/s 766 mmHg 94%
    01:00 +5°C° 0 mm 1 m/s 766 mmHg 94%
    02:00 +5°C° 0 mm 1 m/s 766 mmHg 93%
    03:00 +5°C° 0 mm 1 m/s 765 mmHg 93%
    04:00 +5°C° 0 mm 1 m/s 765 mmHg 93%
    05:00 +5°C° 0 mm 1 m/s 765 mmHg 93%
    06:00 +5°C° 0 mm 1 m/s 765 mmHg 92%
    07:00 +5°C° 0 mm 1 m/s 765 mmHg 92%
    08:00 +5°C° 0 mm 1 m/s 765 mmHg 91%
    09:00 +6°C° 0 mm 1 m/s 765 mmHg 83%
    10:00 +8°C° 0 mm 1 m/s 765 mmHg 76%
    11:00 +10°C° 0 mm 1 m/s 764 mmHg 69%
    12:00 +11°C° 0 mm 1 m/s 764 mmHg 70%
    13:00 +11°C° 0 mm 1 m/s 763 mmHg 71%
    14:00 +12°C° 0 mm 1 m/s 763 mmHg 72%
    15:00 +11°C° 0 mm 1 m/s 763 mmHg 78%
    16:00 +10°C° 0 mm 1 m/s 763 mmHg 84%
    17:00 +9°C° 0 mm 1 m/s 763 mmHg 90%
    18:00 +9°C° 0 mm 2 m/s 763 mmHg 91%
    19:00 +9°C° 0 mm 2 m/s 763 mmHg 91%
    20:00 +9°C° 0 mm 2 m/s 763 mmHg 91%
    21:00 +8°C° 0 mm 2 m/s 763 mmHg 93%
    22:00 +8°C° 0 mm 2 m/s 763 mmHg 94%
    23:00 +7°C° 0 mm 2 m/s 763 mmHg 95%

    Mâine, 29 Mai, Vineri

    Timp Temperatura Precipitaţii Vânt Presiune Umiditate
    00:00 +7°C° 0 mm 2 m/s 762 mmHg 95%
    01:00 +7°C° 0 mm 2 m/s 762 mmHg 95%
    02:00 +6°C° 0 mm 2 m/s 762 mmHg 95%
    03:00 +6°C° 0 mm 2 m/s 762 mmHg 93%
    04:00 +7°C° 0 mm 2 m/s 762 mmHg 92%
    05:00 +7°C° 0 mm 2 m/s 762 mmHg 90%
    06:00 +7°C° 0 mm 2 m/s 762 mmHg 89%
    07:00 +7°C° 0 mm 2 m/s 762 mmHg 89%
    08:00 +7°C° 0 mm 2 m/s 762 mmHg 88%
    09:00 +9°C° 0 mm 2 m/s 762 mmHg 84%
    10:00 +10°C° 0 mm 2 m/s 763 mmHg 81%
    11:00 +12°C° 0 mm 2 m/s 763 mmHg 77%
    12:00 +12°C° 0 mm 2 m/s 762 mmHg 74%
    13:00 +13°C° 0 mm 2 m/s 762 mmHg 72%
    14:00 +13°C° 0 mm 2 m/s 762 mmHg 70%
    15:00 +12°C° 0 mm 2 m/s 762 mmHg 76%
    16:00 +9°C° 0 mm 2 m/s 763 mmHg 83%
    17:00 +8°C° 0 mm 2 m/s 763 mmHg 89%
    18:00 +8°C° 0 mm 2 m/s 763 mmHg 90%
    19:00 +8°C° 0 mm 2 m/s 764 mmHg 90%
    20:00 +7°C° 0 mm 2 m/s 764 mmHg 90%
    21:00 +7°C° 0 mm 2 m/s 764 mmHg 90%
    22:00 +6°C° 0 mm 2 m/s 765 mmHg 90%
    23:00 +6°C° 0 mm 2 m/s 765 mmHg 91%

    Poimâine, 30 Mai, Sâmbătă

    Timp Temperatura Precipitaţii Vânt Presiune Umiditate
    00:00 +6°C° 0 mm 2 m/s 765 mmHg 91%
    01:00 +6°C° 0 mm 2 m/s 765 mmHg 90%
    02:00 +6°C° 0 mm 2 m/s 765 mmHg 90%
    03:00 +6°C° 0 mm 2 m/s 766 mmHg 90%
    04:00 +6°C° 0 mm 2 m/s 766 mmHg 90%
    05:00 +5°C° 0 mm 2 m/s 766 mmHg 90%
    06:00 +5°C° 0 mm 2 m/s 766 mmHg 89%
    07:00 +5°C° 0 mm 2 m/s 767 mmHg 88%
    08:00 +6°C° 0 mm 2 m/s 767 mmHg 86%
    09:00 +7°C° 0 mm 2 m/s 767 mmHg 80%
    10:00 +9°C° 0 mm 2 m/s 767 mmHg 73%
    11:00 +12°C° 0 mm 1 m/s 768 mmHg 67%
    12:00 +13°C° 0 mm 1 m/s 767 mmHg 67%
    13:00 +13°C° 0 mm 1 m/s 767 mmHg 67%
    14:00 +14°C° 0 mm 1 m/s 767 mmHg 67%
    15:00 +13°C° 0 mm 1 m/s 767 mmHg 73%
    16:00 +11°C° 0 mm 1 m/s 767 mmHg 80%
    17:00 +10°C° 0 mm 1 m/s 767 mmHg 87%
    18:00 +9°C° 0 mm 1 m/s 767 mmHg 88%
    19:00 +9°C° 0 mm 1 m/s 768 mmHg 88%
    20:00 +7°C° 0 mm 2 m/s 768 mmHg 89%
    21:00 +7°C° 0 mm 2 m/s 768 mmHg 89%
    22:00 +6°C° 0 mm 2 m/s 768 mmHg 89%
    23:00 +6°C° 0 mm 2 m/s 768 mmHg 88%

    31 Mai, Duminică

    Timp Temperatura Precipitaţii Vânt Presiune Umiditate
    00:00 +6°C° 0 mm 2 m/s 768 mmHg 88%
    01:00 +5°C° 0 mm 2 m/s 768 mmHg 88%
    02:00 +6°C° 0 mm 1 m/s 768 mmHg 87%
    03:00 +5°C° 0 mm 2 m/s 768 mmHg 87%
    04:00 +5°C° 0 mm 2 m/s 768 mmHg 87%
    05:00 +5°C° 0 mm 2 m/s 768 mmHg 87%
    06:00 +5°C° 0 mm 2 m/s 768 mmHg 86%
    07:00 +5°C° 0 mm 2 m/s 768 mmHg 85%
    08:00 +5°C° 0 mm 2 m/s 768 mmHg 84%
    09:00 +7°C° 0 mm 2 m/s 768 mmHg 77%
    10:00 +8°C° 0 mm 2 m/s 768 mmHg 70%
    11:00 +10°C° 0 mm 2 m/s 767 mmHg 64%
    12:00 +12°C° 0 mm 1 m/s 767 mmHg 64%
    13:00 +13°C° 0 mm 1 m/s 766 mmHg 64%
    14:00 +13°C° 0 mm 1 m/s 766 mmHg 65%
    15:00 +12°C° 0 mm 1 m/s 766 mmHg 71%
    16:00 +10°C° 0 mm 1 m/s 766 mmHg 76%
    17:00 +9°C° 0 mm 1 m/s 766 mmHg 82%
    18:00 +8°C° 0 mm 1 m/s 766 mmHg 83%
    19:00 +6°C° 0 mm 2 m/s 766 mmHg 83%
    20:00 +6°C° 0 mm 2 m/s 766 mmHg 84%
    21:00 +6°C° 0 mm 2 m/s 766 mmHg 85%
    22:00 +5°C° 0 mm 2 m/s 765 mmHg 86%
    23:00 +5°C° 0 mm 2 m/s 765 mmHg 87%

    1 Iunie, Luni

    Timp Temperatura Precipitaţii Vânt Presiune Umiditate
    00:00 +5°C° 0 mm 2 m/s 765 mmHg 87%
    01:00 +5°C° 0 mm 2 m/s 765 mmHg 87%
    02:00 +5°C° 0 mm 2 m/s 764 mmHg 87%
    03:00 +5°C° 0 mm 2 m/s 764 mmHg 87%
    04:00 +4°C° 0 mm 2 m/s 764 mmHg 88%
    05:00 +4°C° 0 mm 2 m/s 763 mmHg 88%
    06:00 +5°C° 0 mm 2 m/s 763 mmHg 88%
    07:00 +5°C° 0 mm 2 m/s 763 mmHg 89%
    08:00 +5°C° 0 mm 2 m/s 763 mmHg 90%
    09:00 +7°C° 0 mm 2 m/s 763 mmHg 83%
    10:00 +9°C° 0 mm 2 m/s 763 mmHg 77%
    11:00 +10°C° 0 mm 2 m/s 763 mmHg 70%
    12:00 +12°C° 0 mm 2 m/s 762 mmHg 70%
    13:00 +13°C° 0 mm 2 m/s 761 mmHg 69%
    14:00 +14°C° 0 mm 2 m/s 761 mmHg 69%
    15:00 +13°C° 0 mm 2 m/s 761 mmHg 73%
    16:00 +10°C° 0 mm 2 m/s 760 mmHg 76%
    17:00 +9°C° 0 mm 2 m/s 760 mmHg 80%
    18:00 +8°C° 0 mm 2 m/s 760 mmHg 80%
    19:00 +8°C° 0 mm 3 m/s 760 mmHg 81%
    20:00 +7°C° 0 mm 3 m/s 760 mmHg 82%
    21:00 +7°C° 0 mm 3 m/s 760 mmHg 84%
    22:00 +7°C° 0 mm 3 m/s 760 mmHg 86%
    23:00 +5°C° 0 mm 3 m/s 760 mmHg 88%

    2 Iunie, Marţi

    Timp Temperatura Precipitaţii Vânt Presiune Umiditate
    00:00 +5°C° 0 mm 3 m/s 759 mmHg 88%
    01:00 +5°C° 0 mm 3 m/s 759 mmHg 88%
    02:00 +5°C° 0 mm 3 m/s 759 mmHg 88%
    03:00 +5°C° 0 mm 3 m/s 758 mmHg 87%
    04:00 +5°C° 0 mm 3 m/s 757 mmHg 85%
    05:00 +5°C° 0 mm 3 m/s 757 mmHg 84%
    06:00 +5°C° 0 mm 3 m/s 757 mmHg 83%
    07:00 +5°C° 0 mm 3 m/s 756 mmHg 81%
    08:00 +5°C° 0 mm 4 m/s 756 mmHg 80%
    09:00 +7°C° 0 mm 4 m/s 756 mmHg 74%
    10:00 +8°C° 0 mm 4 m/s 755 mmHg 68%
    11:00 +11°C° 0 mm 4 m/s 754 mmHg 62%
    12:00 +11°C° 0 mm 4 m/s 753 mmHg 62%
    13:00 +11°C° 0 mm 4 m/s 753 mmHg 61%
    14:00 +12°C° 0 mm 4 m/s 752 mmHg 60%
    15:00 +11°C° 0 mm 4 m/s 751 mmHg 64%
    16:00 +11°C° 0 mm 4 m/s 750 mmHg 68%
    17:00 +10°C° 0 mm 4 m/s 749 mmHg 72%
    18:00 +10°C° 0 mm 4 m/s 749 mmHg 74%
    19:00 +8°C° 0 mm 4 m/s 748 mmHg 76%
    20:00 +9°C° 0 mm 3 m/s 748 mmHg 77%
    21:00 +8°C° 0.2 mm 4 m/s 748 mmHg 80%
    22:00 +8°C° 0.2 mm 5 m/s 748 mmHg 83%
    23:00 +9°C° 0.2 mm 6 m/s 749 mmHg 86%
    Arată mai mult